Regional Weather Roundup
Issued by NWS

Home | Current Version | Previous Version | Text Only | Print | Product List | Glossary On
Versions: 1 2 3 4 5 6 7 8 9 10 11 12 13 14 15 16 17 18 19 20 21 22 23 24 25 26 27 28 29 30 31 32 33 34 35 36 37 38 39 40 41 42 43 44 45 46 47 48 49 50
992
ASUS44 KJAN 222010
RWRMS

MISSISSIPPI HOURLY WEATHER ROUNDUP
NATIONAL WEATHER SERVICE JACKSON MS
200 PM CST SAT NOV 22 2014

NOTE: "FAIR: INDICATES FEW OR NO CLOUDS BELOW 12,000 FEET WITH NO
SIGNIFICANT WEATHER AND/OR OBSTRUCTIONS TO VISIBILITY.

MSZ001>002-007>008-010>013-018>021-025>028-034>036-222100-
NORTHWEST MISSISSIPPI

CITY           SKY/WX    TMP DP  RH WIND       PRES   REMARKS
CLARKSDALE     FAIR      66  48  52 SE10      30.10F
CLEVELAND      FAIR      68  53  58 MISG      30.07F
GREENWOOD      SUNNY     71  46  40 S14       30.08F
GREENVILLE     MOSUNNY   70  50  49 S15       30.06F
GRENADA        FAIR      68  45  42 SE9       30.10F
OLIVE BRANCH   CLOUDY    63  43  48 S7        30.12F
OXFORD         FAIR      64  39  39 S9        30.13F
TUNICA         PTCLDY    63  45  51 SE13      30.11F
$$

MSZ003>006-009-014>017-022>024-029>033-037>039-222100-
NORTHEAST MISSISSIPPI

CITY           SKY/WX    TMP DP  RH WIND       PRES   REMARKS
COLUMBUS AFB   MOSUNNY   69  45  42 S16       30.15F
CORINTH        CLOUDY    64  37  36 SE12      30.14F
GOLDN TRIANGLE SUNNY     68  46  45 SE14      30.14F
STARKVILLE     FAIR      68  45  42 S10       30.14F
TUPELO         LGT RAIN  67  37  33 S14       30.14F
$$

MSZ040-058-222100-
CENTRAL MISSISSIPPI

CITY           SKY/WX    TMP DP  RH WIND       PRES   REMARKS
JACKSON INTL   PTSUNNY   70  48  45 S9        30.10F
JACKSON HAWKNS PTSUNNY   70  49  47 SE10      30.10F
MERIDIAN KEY   PTSUNNY   69  51  52 SE12      30.13F
MERIDIAN NAS   MOSUNNY   68  49  50 S9        30.15F
RAYMOND        FAIR      72  66  83 SE10G16   30.08F
VICKSBURG      PTSUNNY   70  53  54 SE9       30.07F
$$

MSZ059>079-222100-
SOUTH MISSISSIPPI

CITY           SKY/WX    TMP DP  RH WIND       PRES   REMARKS
BROOKHAVEN     FAIR      68  54  60 SE5       30.11F
HATTIESBURG    CLOUDY    69  52  54 E7        30.10F
MCCOMB         CLOUDY    69  53  56 SE8       30.09F
NATCHEZ        PTSUNNY   70  55  60 SE13      30.08F
PINE BELT      CLOUDY    66  50  55 E8        30.11F
$$

MSZ080>082-222100-
COASTAL MISSISSIPPI

CITY           SKY/WX    TMP DP  RH WIND       PRES   REMARKS
BAY ST LOUIS   SUNNY     63  52  67 E8G16     30.08F
BILOXI         CLOUDY    64  56  75 E12       30.08F
PASCAGOULA     CLOUDY    66  57  72 E14       30.10F
GULFPORT       CLOUDY    65  56  72 E14G20    30.08F
$$



USA.gov is the U.S. government's official web portal to all federal, state and local government web resources and services.